| time (UTC) | temp F | wind direction | speed MPH | gust MPH | rain 1hr in | rain 24hr in | rain mn in | humidity % | barometer mb |
| 20260504050003 | 61 | 211 | 0.0 | 5.0 | 0.00 | 0.00 | 0.00 | 57 | 1010.5 |
| 20260504044600 | 60 | 211 | 0.0 | 3.0 | 0.00 | 0.00 | 0.00 | 58 | 1010.6 |
| 20260504043104 | 60 | 211 | 1.0 | 3.0 | 0.00 | 0.00 | 0.00 | 57 | 1010.8 |
| 20260504041557 | 61 | 211 | 0.0 | 3.0 | 0.00 | 0.00 | 0.00 | 57 | 1011.0 |
| 20260504040131 | 61 | 211 | 1.0 | 6.0 | 0.00 | 0.00 | 0.00 | 56 | 1011.1 |
| 20260504034601 | 61 | 212 | 1.0 | 4.0 | 0.00 | 0.00 | 0.00 | 56 | 1011.2 |
| 20260504033056 | 61 | 211 | 1.0 | 6.0 | 0.00 | 0.00 | 0.00 | 55 | 1011.5 |
| 20260504031601 | 61 | 200 | 1.0 | 6.0 | 0.00 | 0.00 | 0.00 | 55 | 1011.3 |
| 20260504030053 | 61 | 211 | 1.0 | 4.0 | 0.00 | 0.00 | 0.00 | 56 | 1011.4 |
| 20260504024551 | 60 | 210 | 0.0 | 2.0 | 0.00 | 0.00 | 0.00 | 59 | 1011.6 |
| 20260504023050 | 59 | 210 | 0.0 | 2.0 | 0.00 | 0.00 | 0.00 | 59 | 1011.7 |
| 20260504021549 | 59 | 210 | 0.0 | 0.0 | 0.00 | 0.00 | 0.00 | 61 | 1011.8 |
| 20260504014546 | 61 | 210 | 0.0 | 0.0 | 0.00 | 0.00 | 0.00 | 56 | 1011.6 |
| 20260504013046 | 62 | 210 | 0.0 | 3.0 | 0.00 | 0.00 | 0.00 | 53 | 1011.8 |
| 20260504011545 | 63 | 208 | 0.0 | 3.0 | 0.00 | 0.00 | 0.00 | 51 | 1011.7 |
| 20260504010048 | 64 | 214 | 1.0 | 3.0 | 0.00 | 0.00 | 0.00 | 49 | 1011.7 |
| 20260504004543 | 64 | 211 | 1.0 | 4.0 | 0.00 | 0.00 | 0.00 | 49 | 1011.9 |
| 20260504003043 | 65 | 211 | 0.0 | 3.0 | 0.00 | 0.00 | 0.00 | 48 | 1012.0 |
| 20260504001550 | 66 | 212 | 0.0 | 3.0 | 0.00 | 0.00 | 0.00 | 46 | 1012.1 |
| 20260504000041 | 67 | 214 | 1.0 | 4.0 | 0.00 | 0.00 | 0.00 | 45 | 1012.0 |
| 20260503234600 | 66 | 221 | 2.0 | 6.0 | 0.00 | 0.00 | 0.00 | 44 | 1012.1 |
| 20260503233045 | 66 | 215 | 2.0 | 6.0 | 0.00 | 0.00 | 0.00 | 45 | 1012.0 |
| 20260503231537 | 67 | 208 | 3.0 | 11.0 | 0.00 | 0.00 | 0.00 | 44 | 1011.7 |
| 20260503230035 | 68 | 217 | 2.0 | 7.0 | 0.00 | 0.00 | 0.00 | 45 | 1011.7 |
| 20260503224534 | 69 | 212 | 3.0 | 11.0 | 0.00 | 0.00 | 0.00 | 43 | 1011.8 |
| 20260503223033 | 69 | 211 | 3.0 | 8.0 | 0.00 | 0.00 | 0.00 | 43 | 1012.0 |
| 20260503221535 | 69 | 207 | 1.0 | 5.0 | 0.00 | 0.00 | 0.00 | 45 | 1012.2 |
| 20260503220028 | 69 | 205 | 3.0 | 10.0 | 0.00 | 0.00 | 0.00 | 43 | 1012.6 |
| 20260503214527 | 69 | 219 | 4.0 | 10.0 | 0.00 | 0.00 | 0.00 | 44 | 1012.9 |
| 20260503213024 | 68 | 217 | 2.0 | 10.0 | 0.00 | 0.00 | 0.00 | 45 | 1013.0 |
| 20260503211523 | 68 | 204 | 4.0 | 0.0 | 0.00 | 0.00 | 0.00 | 45 | 1013.3 |
| 20260503210020 | 68 | 221 | 3.0 | 9.0 | 0.00 | 0.00 | 0.00 | 46 | 1013.8 |
| 20260503204523 | 68 | 208 | 3.0 | 9.0 | 0.00 | 0.00 | 0.00 | 45 | 1014.2 |
| 20260503203016 | 67 | 211 | 3.0 | 10.0 | 0.00 | 0.00 | 0.00 | 46 | 1014.6 |
| 20260503201512 | 67 | 207 | 3.0 | 8.0 | 0.00 | 0.00 | 0.00 | 45 | 1015.1 |
| 20260503200009 | 67 | 201 | 3.0 | 10.0 | 0.00 | 0.00 | 0.00 | 49 | 1015.3 |
| 20260503194508 | 67 | 213 | 2.0 | 7.0 | 0.00 | 0.00 | 0.00 | 48 | 1015.8 |
| 20260503193005 | 66 | 217 | 2.0 | 7.0 | 0.00 | 0.00 | 0.00 | 49 | 1015.7 |
| 20260503191503 | 66 | 217 | 5.0 | 10.0 | 0.00 | 0.00 | 0.00 | 50 | 1016.4 |
| 20260503190103 | 66 | 242 | 1.0 | 10.0 | 0.00 | 0.00 | 0.00 | 48 | 1016.7 |
| 20260503184559 | 66 | 213 | 1.0 | 6.0 | 0.00 | 0.00 | 0.00 | 53 | 1017.0 |
| 20260503183057 | 65 | 204 | 3.0 | 8.0 | 0.00 | 0.00 | 0.00 | 49 | 1017.4 |
| 20260503181554 | 65 | 187 | 4.0 | 9.0 | 0.00 | 0.00 | 0.00 | 47 | 1017.6 |
| 20260503180059 | 65 | 215 | 2.0 | 7.0 | 0.00 | 0.00 | 0.00 | 46 | 1018.1 |
| 20260503174547 | 63 | 215 | 3.0 | 7.0 | 0.00 | 0.00 | 0.00 | 49 | 1018.5 |
| 20260503173044 | 62 | 208 | 1.0 | 8.0 | 0.00 | 0.00 | 0.00 | 52 | 1018.7 |
| 20260503171546 | 62 | 208 | 2.0 | 7.0 | 0.00 | 0.00 | 0.00 | 51 | 1019.1 |
| 20260503081519 | 37 | 345 | 0.0 | 0.0 | 0.00 | 0.03 | 0.00 | 94 | 1020.1 |
| 20260503071516 | 37 | 345 | 0.0 | 0.0 | 0.00 | 0.03 | 0.00 | 92 | 1020.1 |